sat.trackr.live / text

‹ back to catalog

STARLINK-3817

NORAD 52367 · 2022-045AN

PAYLOAD ACTIVE UNKNOWN

§ Identity

Operator
Country
US
Launch date
2022-04-29
Launch site
AFETR
Launch vehicle
Mass (kg)
RCS (m²)

Purposes: comms

External: N2YO · Heavens-Above · Gunter

§ Orbital elements

Epoch: 2026-05-25T03:45:34.644672Z

Period
95.44 min
Inclination
53.2118°
Eccentricity
0.0000982
Mean motion
15.08836933 rev/d
Perigee alt
539.1 km
Apogee alt
540.4 km
Semi-major
6,917.9 km
B*
1.4406e-5
RAAN
205.8483°
Arg perigee
82.0476°
Mean anomaly
278.0628°
Rev number
22,746

§ Raw data

STARLINK-38171 52367U 22045AN  26145.15665098 -.00000058  00000+0  14406-4 0  99962 52367  53.2118 205.8483 0000982  82.0476 278.0628 15.08836933227461

JSON: /api/v1/satellites/52367 · /tle

For live sub-satellite position, see the globe view (requires WebGL).

§ Visibility from observer

Set your observer location to see the next 7 days of passes ≥ 10°. The values pass through the URL so the page stays shareable.

No JS? Fill the form by hand. The geolocation button needs JavaScript.